Location: Franklinton
(36.1018°N, 78.4581°W)
Time: 10:10:40
(UTC-04:00)

OTV 5 (USA 277) - Visible Passes

Search period start: 18 September 2018 00:00
Search period end: 28 September 2018 00:00
Orbit: 387 x 394 km, 54.5° (Epoch: 08 September)

Date Brightness Start Highest point End Pass type
(mag) Time Alt. Az. Time Alt. Az. Time Alt. Az.
24 Sep ? 05:57:27 10° SSE 05:58:57 13° SE 06:00:29 10° E visible
25 Sep ? 06:35:03 10° SW 06:38:13 75° SE 06:41:25 10° NE visible
26 Sep ? 05:39:57 14° S 05:42:00 27° SE 05:44:45 10° ENE visible
27 Sep ? 04:46:29 10° ESE 04:46:29 10° ESE 04:46:46 10° ESE visible
27 Sep ? 06:18:55 14° WSW 06:21:26 47° NW 06:24:33 10° NNE visible
